FW6583 Weather Reports


Display with metric or nautical units.
time (UTC)temp
F
wind
direction
speed
MPH
gust
MPH
rain 1hr
in
rain 24hr
in
rain mn
in
humidity
%
barometer
mb
20260505201026 73 309 1.0 8.0 0.00 0.00 0.00 47 1012.4
20260505200523 74 23 1.0 8.0 0.00 0.00 0.00 48 1012.4
20260505200046 74 212 1.0 8.0 0.00 0.00 0.00 47 1012.4
20260505195528 74 271 1.0 6.0 0.00 0.00 0.00 48 1012.4
20260505195025 74 319 2.0 6.0 0.00 0.00 0.00 49 1012.5
20260505194548 74 314 3.0 8.0 0.00 0.00 0.00 47 1012.6
20260505194025 74 297 2.0 8.0 0.00 0.00 0.00 48 1012.5
20260505193529 74 19 2.0 10.0 0.00 0.00 0.00 47 1012.3
20260505193102 74 350 3.0 10.0 0.00 0.00 0.00 46 1012.4
20260505192524 74 136 3.0 10.0 0.00 0.00 0.00 46 1012.4
20260505192023 74 5 3.0 9.0 0.00 0.00 0.00 46 1012.4
20260505191542 74 332 2.0 5.0 0.00 0.00 0.00 47 1012.4
20260505191023 75 219 1.0 5.0 0.00 0.00 0.00 46 1012.4
20260505190522 75 1 2.0 10.0 0.00 0.00 0.00 50 1012.5
20260505190046 75 338 3.0 10.0 0.00 0.00 0.00 48 1012.5
20260505185523 75 8 3.0 7.0 0.00 0.00 0.00 48 1012.5
20260505185029 75 294 2.0 9.0 0.00 0.00 0.00 49 1012.5
20260505184553 75 294 2.0 9.0 0.00 0.00 0.00 48 1012.5
20260505184026 75 236 4.0 9.0 0.00 0.00 0.00 47 1012.5
20260505183524 75 18 3.0 7.0 0.00 0.00 0.00 47 1012.4
20260505183044 76 6 2.0 8.0 0.00 0.00 0.00 47 1012.6
20260505182523 76 33 4.0 8.0 0.00 0.00 0.00 46 1012.6
20260505182023 76 309 2.0 6.0 0.00 0.00 0.00 48 1012.4
20260505181545 76 340 3.0 8.0 0.00 0.00 0.00 46 1012.3
20260505181026 76 349 4.0 9.0 0.00 0.00 0.00 47 1012.3
20260505180524 76 311 4.0 9.0 0.00 0.00 0.00 46 1012.3
20260505180045 76 358 4.0 9.0 0.00 0.00 0.00 46 1012.4
20260505175526 76 250 3.0 8.0 0.00 0.00 0.00 48 1012.5
20260505175026 76 297 3.0 7.0 0.00 0.00 0.00 47 1012.4
20260505174540 76 26 2.0 12.0 0.00 0.00 0.00 47 1012.5
20260505174023 75 315 3.0 12.0 0.00 0.00 0.00 47 1012.6
20260505173527 75 93 3.0 11.0 0.00 0.00 0.00 47 1012.5
20260505173039 75 27 3.0 11.0 0.00 0.00 0.00 47 1012.7
20260505172524 75 279 2.0 7.0 0.00 0.00 0.00 49 1012.8
20260505172024 75 353 4.0 7.0 0.00 0.00 0.00 47 1012.6
20260505171549 75 309 2.0 6.0 0.00 0.00 0.00 47 1012.6
20260505171025 75 351 2.0 5.0 0.00 0.00 0.00 48 1012.9
20260505170524 75 35 2.0 10.0 0.00 0.00 0.00 47 1012.8
20260505170042 75 337 2.0 10.0 0.00 0.00 0.00 49 1012.8
20260505165524 75 19 3.0 7.0 0.00 0.00 0.00 48 1012.8
20260505165024 75 281 3.0 6.0 0.00 0.00 0.00 49 1012.9
20260505164545 74 324 3.0 8.0 0.00 0.00 0.00 48 1012.9
20260505164024 74 44 4.0 8.0 0.00 0.00 0.00 49 1013.0
20260505163524 74 29 2.0 7.0 0.00 0.00 0.00 50 1013.0
20260505163048 73 73 3.0 8.0 0.00 0.00 0.00 49 1013.0
20260505162523 73 301 3.0 9.0 0.00 0.00 0.00 50 1013.0
20260505162027 73 300 3.0 9.0 0.00 0.00 0.00 50 1013.0
20260505161548 73 2 3.0 9.0 0.00 0.00 0.00 50 1013.2
20260505161024 72 285 4.0 8.0 0.00 0.00 0.00 50 1013.0
20260505160526 72 42 4.0 8.0 0.00 0.00 0.00 50 1013.1
20260505153047 70 13 2.0 10.0 0.00 0.00 0.00 53 1013.5
20260505152525 70 349 4.0 10.0 0.00 0.00 0.00 53 1013.4
20260505152033 70 255 4.0 9.0 0.00 0.00 0.00 54 1013.6
20260505151540 70 360 3.0 9.0 0.00 0.00 0.00 55 1013.6
20260505151024 69 33 1.0 7.0 0.00 0.00 0.00 56 1013.6
20260505150524 69 252 2.0 7.0 0.00 0.00 0.00 55 1013.8
20260505140524 68 96 3.0 12.0 0.00 0.00 0.00 57 1014.0
20260505125025 64 304 2.0 6.0 0.00 0.00 0.00 62 1013.9
20260505124535 64 294 1.0 6.0 0.00 0.00 0.00 62 1013.9
20260505124024 64 337 2.0 5.0 0.00 0.00 0.00 61 1013.8
20260505123524 63 0 1.0 7.0 0.00 0.00 0.00 63 1014.0
20260505123053 63 38 1.0 10.0 0.00 0.00 0.00 64 1014.0
20260505122524 63 208 2.0 10.0 0.00 0.00 0.00 64 1014.0
20260505122025 63 0 1.0 6.0 0.00 0.00 0.00 65 1014.1
20260505121539 62 21 0.0 6.0 0.00 0.00 0.00 65 1014.3
20260505121024 62 358 1.0 6.0 0.00 0.00 0.00 67 1014.2
20260505120524 62 30 0.0 2.0 0.00 0.00 0.00 67 1014.3
20260505120054 62 16 0.0 4.0 0.00 0.00 0.00 66 1014.2
20260505115523 62 246 0.0 4.0 0.00 0.00 0.00 65 1014.3
20260505115023 62 48 1.0 3.0 0.00 0.00 0.00 66 1014.3
20260505114549 62 6 1.0 5.0 0.00 0.00 0.00 66 1014.2
20260505114024 62 51 0.0 5.0 0.00 0.00 0.00 65 1014.2
20260505113524 62 51 1.0 3.0 0.00 0.00 0.00 67 1014.3
20260505113045 62 11 0.0 2.0 0.00 0.00 0.00 67 1014.2
20260505112527 62 208 0.0 2.0 0.00 0.00 0.00 67 1014.2
20260505112024 62 0 0.0 2.0 0.00 0.00 0.00 65 1014.2
20260505111541 62 0 0.0 4.0 0.00 0.00 0.00 66 1014.1
20260505111029 62 53 1.0 4.0 0.00 0.00 0.00 65 1014.1
20260505110524 62 0 1.0 3.0 0.00 0.00 0.00 66 1014.1
20260505102027 62 295 1.0 5.0 0.00 0.00 0.00 64 1013.6
20260505101543 62 324 1.0 3.0 0.00 0.00 0.00 63 1013.5
20260505101029 63 1 0.0 5.0 0.00 0.00 0.00 63 1013.4
20260505100526 63 3 1.0 5.0 0.00 0.00 0.00 63 1013.3
20260505100041 62 316 1.0 4.0 0.00 0.00 0.00 64 1013.2
20260505095527 62 278 0.0 3.0 0.00 0.00 0.00 63 1013.1
20260505095029 62 0 0.0 3.0 0.00 0.00 0.00 64 1013.0
20260505094539 62 295 1.0 5.0 0.00 0.00 0.00 64 1012.9
20260505094024 62 15 1.0 5.0 0.00 0.00 0.00 64 1012.9
20260505093527 62 63 0.0 3.0 0.00 0.00 0.00 65 1012.8
20260505093040 62 0 0.0 5.0 0.00 0.00 0.00 64 1012.8
20260505092527 62 44 0.0 5.0 0.00 0.00 0.00 64 1012.8
20260505092026 62 0 1.0 4.0 0.00 0.00 0.00 63 1012.8
20260505091601 62 24 0.0 3.0 0.00 0.00 0.00 64 1012.5
20260505091028 62 24 1.0 3.0 0.00 0.00 0.00 64 1012.6
20260505090526 62 0 1.0 4.0 0.00 0.00 0.00 64 1012.7
20260505090055 62 40 0.0 5.0 0.00 0.00 0.00 64 1012.5
20260505085527 62 58 0.0 5.0 0.00 0.00 0.00 64 1012.6
20260505085027 62 262 0.0 5.0 0.00 0.00 0.00 64 1012.6
20260505084601 62 0 0.0 5.0 0.00 0.00 0.00 64 1012.6
20260505084026 62 139 0.0 3.0 0.00 0.00 0.00 63 1012.5
20260505083529 62 36 1.0 3.0 0.00 0.00 0.00 63 1012.5
20260505083058 62 0 0.0 3.0 0.00 0.00 0.00 64 1012.5
20260505082527 62 51 0.0 3.0 0.00 0.00 0.00 63 1012.5
20260505082024 62 0 0.0 2.0 0.00 0.00 0.00 63 1012.4
20260505081557 62 0 0.0 3.0 0.00 0.00 0.00 63 1012.2
20260505081024 62 85 0.0 3.0 0.00 0.00 0.00 62 1012.3
20260505080526 62 70 0.0 3.0 0.00 0.00 0.00 62 1012.3
20260505080058 62 0 0.0 3.0 0.00 0.00 0.00 63 1012.3
20260505075526 62 0 0.0 2.0 0.00 0.00 0.00 64 1012.4
20260505075026 62 0 0.0 2.0 0.00 0.00 0.00 63 1012.2
20260505074544 62 37 1.0 3.0 0.00 0.00 0.00 62 1012.1
20260505074027 62 35 0.0 3.0 0.00 0.00 0.00 62 1012.2
20260505073524 62 0 0.0 2.0 0.00 0.00 0.00 62 1012.2
20260505073053 63 319 0.0 1.0 0.00 0.00 0.00 62 1012.2
20260505072526 63 0 0.0 2.0 0.00 0.00 0.00 63 1012.1
20260505072027 63 0 0.0 3.0 0.00 0.00 0.00 62 1012.1
20260505071547 63 0 0.0 5.0 0.00 0.00 0.00 61 1012.2
20260505071026 63 349 1.0 5.0 0.00 0.00 0.00 62 1012.0
20260505070530 63 336 0.0 4.0 0.00 0.00 0.00 62 1011.9
20260505070044 63 352 0.0 3.0 0.00 0.00 0.00 63 1012.0
20260505065526 63 0 0.0 6.0 0.00 0.00 0.00 62 1011.9
20260505065024 63 288 1.0 6.0 0.00 0.00 0.00 62 1012.0
20260505064545 63 0 0.0 3.0 0.00 0.00 0.00 62 1012.0
20260505064028 63 203 1.0 3.0 0.00 0.00 0.00 62 1011.9
20260505063526 62 0 0.0 4.0 0.00 0.00 0.00 63 1012.0
20260505063051 62 0 1.0 4.0 0.00 0.00 0.00 63 1011.9
20260505062527 62 0 0.0 4.0 0.00 0.00 0.00 63 1011.9
20260505062027 62 0 0.0 3.0 0.00 0.00 0.00 63 1012.0
20260505061542 62 240 0.0 3.0 0.00 0.00 0.00 63 1012.0
20260505061024 62 211 0.0 2.0 0.00 0.00 0.00 63 1012.1
20260505060524 62 42 0.0 2.0 0.00 0.00 0.00 63 1012.1
20260505060058 62 41 0.0 2.0 0.00 0.00 0.00 64 1012.2
20260505055527 62 27 0.0 3.0 0.00 0.00 0.00 63 1012.2
20260505055024 63 0 0.0 3.0 0.00 0.00 0.00 62 1012.1
20260505054544 63 1 0.0 3.0 0.00 0.00 0.00 63 1012.2
20260505054029 63 30 1.0 3.0 0.00 0.00 0.00 63 1012.2
20260505053525 62 56 0.0 1.0 0.00 0.00 0.00 64 1012.1
20260505053040 62 18 0.0 5.0 0.00 0.00 0.00 63 1012.1
20260505052527 63 335 0.0 5.0 0.00 0.00 0.00 65 1012.2
20260505052027 62 32 0.0 2.0 0.00 0.00 0.00 65 1012.1
20260505051539 62 129 0.0 2.0 0.00 0.00 0.00 64 1012.2
20260505051027 62 0 0.0 2.0 0.00 0.00 0.00 65 1012.2
20260505050526 62 17 0.0 3.0 0.00 0.00 0.00 64 1012.0
20260505041550 62 0 0.0 3.0 0.00 0.00 0.00 65 1012.0
20260505041023 62 0 0.0 0.0 0.00 0.00 0.00 66 1011.9
20260505040530 61 0 0.0 0.0 0.00 0.00 0.00 66 1012.0
20260505040048 61 0 0.0 0.0 0.00 0.00 0.00 66 1012.0
20260505035527 61 0 0.0 0.0 0.00 0.00 0.00 67 1012.0
20260505035023 61 0 0.0 0.0 0.00 0.00 0.00 67 1012.0
20260505034543 61 0 0.0 0.0 0.00 0.00 0.00 67 1012.0
20260505034027 61 0 0.0 1.0 0.00 0.00 0.00 67 1012.1
20260505033523 61 0 0.0 1.0 0.00 0.00 0.00 67 1012.1
20260505033041 61 23 0.0 1.0 0.00 0.00 0.00 66 1011.9
20260505032523 61 18 0.0 1.0 0.00 0.00 0.00 66 1012.0
20260505032023 62 0 0.0 1.0 0.00 0.00 0.00 66 1011.9
20260505031539 62 18 0.0 1.0 0.00 0.00 0.00 66 1012.0
20260505031023 62 18 0.0 1.0 0.00 0.00 0.00 66 1012.1
20260505030523 62 18 0.0 1.0 0.00 0.00 0.00 66 1012.1
20260505030105 62 0 0.0 2.0 0.00 0.00 0.00 66 1012.1
20260505025526 62 18 0.0 2.0 0.00 0.00 0.00 66 1012.3
20260505025022 62 0 0.0 2.0 0.00 0.00 0.00 66 1012.2
20260505024540 62 0 0.0 1.0 0.00 0.00 0.00 66 1012.2
20260505024022 62 0 0.0 1.0 0.00 0.00 0.00 66 1012.2
20260505023523 62 0 0.0 2.0 0.00 0.00 0.00 66 1012.2
20260505023038 62 0 0.0 2.0 0.00 0.00 0.00 66 1012.3
20260505022524 62 0 0.0 1.0 0.00 0.00 0.00 66 1012.2
20260505022023 62 0 0.0 1.0 0.00 0.00 0.00 66 1012.2
20260505021542 62 0 0.0 1.0 0.00 0.00 0.00 65 1012.2
20260505021023 62 0 0.0 1.0 0.00 0.00 0.00 65 1012.3
20260505020523 63 0 0.0 1.0 0.00 0.00 0.00 65 1012.3
20260505020044 63 0 0.0 1.0 0.00 0.00 0.00 64 1012.3
20260505015523 63 87 0.0 1.0 0.00 0.00 0.00 64 1012.4
20260505015023 63 0 0.0 1.0 0.00 0.00 0.00 63 1012.4
20260505014600 64 0 0.0 1.0 0.00 0.00 0.00 63 1012.4
20260505014026 64 88 0.0 1.0 0.00 0.00 0.00 63 1012.5
20260505013526 64 87 0.0 1.0 0.00 0.00 0.00 62 1012.5
20260505013051 64 83 0.0 1.0 0.00 0.00 0.00 62 1012.5
20260505012528 64 82 0.0 1.0 0.00 0.00 0.00 62 1012.5
20260505012026 64 79 0.0 1.0 0.00 0.00 0.00 62 1012.4
20260505011542 65 79 0.0 1.0 0.00 0.00 0.00 62 1012.6
20260505011024 65 81 0.0 4.0 0.00 0.00 0.00 62 1012.4
20260505010525 65 0 0.0 4.0 0.00 0.00 0.00 62 1012.5
20260505010051 65 6 0.0 3.0 0.00 0.00 0.00 62 1012.4
20260505005529 65 0 0.0 3.0 0.00 0.00 0.00 62 1012.3
20260505005026 65 41 0.0 2.0 0.00 0.00 0.00 62 1012.3
20260505004549 66 0 0.0 2.0 0.00 0.00 0.00 61 1012.2
20260505004026 66 250 0.0 2.0 0.00 0.00 0.00 61 1012.1
20260505003527 66 20 0.0 1.0 0.00 0.00 0.00 60 1012.1
20260505003054 66 0 0.0 1.0 0.00 0.00 0.00 60 1012.0
20260505002526 66 70 0.0 0.0 0.00 0.00 0.00 60 1011.9
20260505002026 67 0 0.0 3.0 0.00 0.00 0.00 59 1011.9
20260505001542 67 0 0.0 3.0 0.00 0.00 0.00 59 1011.9
20260505001026 67 219 0.0 2.0 0.00 0.00 0.00 59 1012.0
20260505000526 67 262 0.0 2.0 0.00 0.00 0.00 59 1012.1
20260505000039 67 0 0.0 1.0 0.00 0.00 0.00 58 1012.0
20260504235526 67 0 0.0 1.0 0.00 0.00 0.00 58 1012.0
20260504235026 67 0 0.0 1.0 0.00 0.00 0.00 58 1012.2
20260504234538 67 0 0.0 1.0 0.00 0.00 0.00 57 1012.0
20260504234026 68 0 0.0 2.0 0.00 0.00 0.00 57 1012.0
20260504233525 68 0 0.0 3.0 0.00 0.00 0.00 57 1011.9
20260504233045 68 0 0.0 3.0 0.00 0.00 0.00 57 1011.9
20260504232530 69 264 1.0 4.0 0.00 0.00 0.00 56 1011.9
20260504232025 69 19 0.0 4.0 0.00 0.00 0.00 57 1011.9
20260504231542 69 30 0.0 4.0 0.00 0.00 0.00 57 1011.8
20260504231026 69 43 1.0 4.0 0.00 0.00 0.00 56 1011.8
20260504230526 69 0 1.0 4.0 0.00 0.00 0.00 54 1011.7
20260504230041 70 296 0.0 3.0 0.00 0.00 0.00 55 1011.8
20260504225525 70 2 1.0 4.0 0.00 0.00 0.00 54 1011.8
20260504225026 70 357 0.0 5.0 0.00 0.00 0.00 53 1011.8
20260504224539 70 335 1.0 5.0 0.00 0.00 0.00 54 1011.8
20260504224026 70 91 2.0 7.0 0.00 0.00 0.00 55 1011.9
20260504223526 70 314 1.0 7.0 0.00 0.00 0.00 55 1012.0
20260504223059 69 15 2.0 8.0 0.00 0.00 0.00 54 1012.1
20260504222526 69 17 1.0 8.0 0.00 0.00 0.00 55 1012.2
20260504222025 70 302 1.0 4.0 0.00 0.00 0.00 54 1012.2
20260504221546 70 119 2.0 4.0 0.00 0.00 0.00 54 1012.3
20260504221025 70 294 2.0 5.0 0.00 0.00 0.00 53 1012.1
20260504220525 70 289 1.0 8.0 0.00 0.00 0.00 52 1012.0
20260504220046 70 297 2.0 8.0 0.00 0.00 0.00 52 1012.0
20260504215523 70 290 2.0 8.0 0.00 0.00 0.00 51 1011.9
20260504215029 71 37 2.0 5.0 0.00 0.00 0.00 52 1011.9
20260504214544 71 325 1.0 4.0 0.00 0.00 0.00 54 1011.7
20260504214029 71 241 1.0 6.0 0.00 0.00 0.00 53 1011.7
20260504213526 71 264 2.0 6.0 0.00 0.00 0.00 52 1011.6
20260504213047 71 316 1.0 4.0 0.00 0.00 0.00 50 1011.7
20260504212526 71 36 2.0 4.0 0.00 0.00 0.00 52 1011.7
20260504212026 71 307 1.0 4.0 0.00 0.00 0.00 51 1011.9
20260504211604 70 322 1.0 4.0 0.00 0.00 0.00 52 1011.8
20260504211026 70 100 1.0 5.0 0.00 0.00 0.00 52 1011.9
20260504210526 70 134 1.0 6.0 0.00 0.00 0.00 53 1011.7
20260504210043 70 66 2.0 9.0 0.00 0.00 0.00 51 1011.7
20260504205525 70 38 2.0 9.0 0.00 0.00 0.00 50 1011.6
20260504205025 71 283 2.0 9.0 0.00 0.00 0.00 51 1011.6
20260504204543 72 285 1.0 7.0 0.00 0.00 0.00 50 1011.6
20260504204025 72 23 2.0 11.0 0.00 0.00 0.00 48 1011.7
20260504203525 72 271 3.0 11.0 0.00 0.00 0.00 47 1011.7
20260504203045 73 270 3.0 11.0 0.00 0.00 0.00 48 1011.8
20260504202527 72 35 2.0 6.0 0.00 0.00 0.00 49 1011.7
20260504202027 71 11 2.0 6.0 0.00 0.00 0.00 49 1011.7
20260504201540 71 1 2.0 6.0 0.00 0.00 0.00 50 1011.7